7 * 24
多渠道服务支持
STARLINK-37318(NORAD编号68712)是美国SpaceX公司星链(Starlink)卫星互联网星座中的一颗低轨通信卫星。星链项目旨在构建全球覆盖的太空互联网系统,计划部署上万颗低轨卫星,为全球提供高带宽互联网接入服务,在民用通信和军事领域均具备重要应用价值。 作为星链星座的组成部分,该卫星运行于近地轨道,通过星间链路和地面基站实现网络信号传输,助力完成星座的全球组网布局,延续了SpaceX批量生产、批量发射的低成本部署策略,是星链持续扩张星座规模的其中一颗卫星。
美国
(US)
| 数据来源 | 国际轨道数据 |
| 星历时间: | 2026-05-24T12:00:02+0800 1天前 查看轨道信息 |
| 半长轴: | 6797.029km |
| 偏心率: | 0.0001221 |
| 轨道倾角: | 53.160° |
| 近地点辐角 | 113.099° |
| 升交点赤经 | 44.044° |
| 平近点角 | 161.236° |
| 近地点: | 418.062km |
| 远地点: | 419.722km |
| 周期: | 92.948分钟 |
| 每日圈数: | 15.492593 |